sat.trackr.live / text

‹ back to catalog

STARLINK-5185

NORAD 54100 · 2022-136BB

PAYLOAD ACTIVE UNKNOWN

§ Identity

Operator
Country
US
Launch date
2022-10-20
Launch site
AFETR
Launch vehicle
Mass (kg)
RCS (m²)

Purposes: comms

External: N2YO · Heavens-Above · Gunter

§ Orbital elements

Epoch: 2026-09-20T22:00:03.000096Z

Period
94.45 min
Inclination
53.1614°
Eccentricity
0.0002349
Mean motion
15.24664062 rev/d
Perigee alt
490.2 km
Apogee alt
493.4 km
Semi-major
6,869.9 km
B*
3.5231e-4
RAAN
175.7398°
Arg perigee
88.1548°
Mean anomaly
338.3509°
Rev number
544

§ Raw data

STARLINK-51851 54100U 22136BB  26263.91670139  .00008489  00000+0  35231-3 0  99942 54100  53.1614 175.7398 0002349  88.1548 338.3509 15.24664062  5444

JSON: /api/v1/satellites/54100 · /tle

For live sub-satellite position, see the globe view (requires WebGL).

§ Visibility from observer

Set your observer location to see the next 7 days of passes ≥ 10°. The values pass through the URL so the page stays shareable.

No JS? Fill the form by hand. The geolocation button needs JavaScript.